Home > Weather > Strathcona County > Past weeks

Flag for Canada Past Weather in Strathcona County, Alberta, Canada — Yesterday and Last 2 Weeks

Now
62 °F

Cool.


Feels Like: 62 °F
Forecast: 43 / 68 °F
Wind: 10 mph from South

Location: Edmonton Municipal

Current Time: May 25, 2016 at 11:11:53 AM

Latest Report: May 25, 2016 at 10:00 AM


Visibility: N/A

Pressure: 29.85 "Hg (27.40 "Hg at 728m altitude)

Humidity: 61%

Dew Point: 48 °F

Location of Strathcona CountyLocation

Past Weather in Strathcona County — Graph

°F

Strathcona County Temperature Yesterday

Maximum temperature yesterday: 63 °F (at 5:00 PM)
Minimum temperature yesterday: 46 °F (at 2:00 AM)
Average temperature yesterday: 53 °F

High & Low Weather Summary for the Past Weeks

 TemperatureHumidityPressure
High79 °F (May 16, 4:00 PM)100% (May 20, 4:00 AM)30.51 "Hg (May 20, 4:00 AM)
Low32 °F (May 12, 6:00 AM)11% (May 16, 5:00 PM)29.46 "Hg (May 22, 1:00 PM)
Average52 °F57%29.99 "Hg
* Reported May 10 9:00 AM — May 25 9:00 AM, Strathcona County, Weather by CustomWeather, © 2016

Note: Actual official high and low records may vary slightly from our data, if they occured in-between our weather recording intervals... More about our weather records

Advertising

Strathcona County Weather History for the Previous 24 Hours

Scroll right to see more
 ConditionsComfort  
Time TempWeatherWind HumidityBarometerVisibility
9:00 AM
Wed, May 25
56 °FCool.8 mph68%29.86 "HgN/A
8:00 AM52 °FCool.9 mph78%29.86 "HgN/A
7:00 AM50 °FCool.8 mph84%29.86 "HgN/A
6:00 AM47 °FCool.7 mph90%29.86 "HgN/A
5:00 AM47 °FCool.6 mph83%29.85 "HgN/A
4:00 AM48 °FCool.7 mph87%29.84 "HgN/A
3:00 AM49 °FCool.9 mph85%29.85 "HgN/A
2:00 AM51 °FCool.8 mph78%29.85 "HgN/A
1:00 AM53 °FCool.9 mph70%29.84 "HgN/A
12:00 AM54 °FCool.9 mph67%29.84 "HgN/A
11:00 PM
Tue, May 24
55 °FCool.8 mph65%29.84 "HgN/A
10:00 PM57 °FCool.7 mph61%29.84 "HgN/A
9:00 PM60 °FRefreshingly cool.10 mph55%29.83 "HgN/A
8:00 PM60 °FRefreshingly cool.10 mph55%29.83 "HgN/A
7:00 PM63 °FMild.12 mph47%29.84 "HgN/A
6:00 PM63 °FMild.13 mph48%29.84 "HgN/A
5:00 PM63 °FMild.12 mph50%29.85 "HgN/A
4:00 PM62 °FRefreshingly cool.12 mph54%29.87 "HgN/A
3:00 PM60 °FRefreshingly cool.9 mph58%29.87 "HgN/A
2:00 PM57 °FCool.7 mph62%29.89 "HgN/A
1:00 PM56 °FCool.6 mph63%29.89 "HgN/A
12:00 PM54 °FCool.7 mph64%29.89 "HgN/A
11:00 AM53 °FCool.7 mph67%29.90 "HgN/A
Weather by CustomWeather, © 2016

See weather overviewHow to use our weather pages